(217737) = 2000 AF216

Discovered at Kitt Peak on 2000-01-08 by Spacewatch.

Orbit

Orbit type: Main Belt

Note: WebGL enabled browser required.

epoch2023-09-13.0
epoch JD2460200.5
perihelion date2022-05-07.67143
perihelion JD2459707.17143
argument of perihelion (°)217.81372
ascending node (°)250.31713
inclination (°)8.01370
eccentricity0.0723559
perihelion distance (AU)2.8731064
Tisserand w.r.t. Jupiter3.2
ΔV w.r.t. Earth (km/sec)10.8
semimajor axis (AU)3.0972075
mean anomaly (°)89.20407
mean daily motion (°/day)0.18082080
aphelion distance (AU)3.321
period (years)5.45
P-vector [x]-0.30555093
P-vector [y]0.90407609
P-vector [z]0.29880604
Q-vector [x]-0.94308447
Q-vector [y]-0.24408436
Q-vector [z]-0.22586392
absolute magnitude15.39
phase slope0.15
uncertainty0
referenceMPO 778512
observations used568
oppositions17
arc length (days)8588
first opposition used1999
last opposition used2023
residual rms (arc-secs)0.71
perturbers coarse indicatorM-v
perturbers precise indicator003Ek
first observation date used1999-12-05.0
last observation date used2023-06-10.0
computer nameMPCLINUX
JD of orbit computation2456909.185389
perihelion JD uncertainty (days)2.3917E-04
argument of perihelion uncertainty (°)5.4543E-05
ascending node uncertainty (°)3.2950E-05
inclination uncertainty (°)6.4640E-06
eccentricity uncertainty 5.3805E-08
perihelion distance uncertainty (AU)1.6091E-07
Minimum Orbit Intersection Distances (in AU)
for orbit epoch: 2460000.5, reference: E2023-L52
Mercury2.5624
Venus2.15989
Earth1.89447
Mars1.2781
Jupiter1.85906
Saturn6.16899
Uranus15.4799
Neptune26.7769

Observations

591 total observations over interval: 1999 12 05.23155 – 2023 06 10.174982
These data are available for download (format description).

Date (UT) J2000 RA J2000 Dec Magn Location Ref
1999 12 05.23155 03 50 55.78 +21 32 20.6 19.2 R 703 – Catalina Sky Survey MPS 142446
1999 12 05.24387 03 50 55.10 +21 32 16.3 19.5 R 703 – Catalina Sky Survey MPS 142446
1999 12 05.25618 03 50 54.59 +21 32 12.2 20.3 R 703 – Catalina Sky Survey MPS 142446
1999 12 05.26851 03 50 53.83 +21 32 08.6 19.3 R 703 – Catalina Sky Survey MPS 142446
2000 01 08.12213 03 34 35.28 +19 10 16.7 19.6 V 691 – Steward Observatory, Kitt Peak-Spacewatch MPS 9464
2000 01 08.15128 03 34 35.08 +19 10 11.8 19.7 V 691 – Steward Observatory, Kitt Peak-Spacewatch MPS 9464
2000 01 08.17936 03 34 34.91 +19 10 07.4 19.9 V 691 – Steward Observatory, Kitt Peak-Spacewatch MPS 9464
2000 01 10.15767 03 34 28.33 +19 05 09.3 20.2 V 691 – Steward Observatory, Kitt Peak-Spacewatch MPS 9464
2000 01 10.18000 03 34 28.27 +19 05 06.0 20.0 V 691 – Steward Observatory, Kitt Peak-Spacewatch MPS 9464
2000 01 10.20228 03 34 28.21 +19 05 02.6 20.1 V 691 – Steward Observatory, Kitt Peak-Spacewatch MPS 9464
2001 03 15.27410 10 01 44.30 -00 26 30.8 18.9 R 699 – Lowell Observatory-LONEOS MPS 142446
2001 03 15.28892 10 01 43.84 -00 26 26.7   699 – Lowell Observatory-LONEOS MPS 142446
2001 03 15.30374 10 01 43.24 -00 26 22.3   699 – Lowell Observatory-LONEOS MPS 142446
2001 03 15.31857 10 01 42.61 -00 26 18.3   699 – Lowell Observatory-LONEOS MPS 142446
2003 07 06.32090 20 37 48.71 -09 28 14.9 21.6 V 691 – Steward Observatory, Kitt Peak-Spacewatch MPS 142446
2003 07 06.34843 20 37 47.64 -09 28 14.6 21.5 V 691 – Steward Observatory, Kitt Peak-Spacewatch MPS 142446
2003 07 06.37612 20 37 46.54 -09 28 14.4 21.7 V 691 – Steward Observatory, Kitt Peak-Spacewatch MPS 142446
2004 09 10.29257 01 30 39.73 +19 16 03.0 19.6   704 – Lincoln Laboratory ETS, New Mexico MPS 142446
2004 09 10.30379 01 30 39.49 +19 16 03.6 19.9   704 – Lincoln Laboratory ETS, New Mexico MPS 142446
2004 09 10.32624 01 30 38.99 +19 16 01.6 19.9   704 – Lincoln Laboratory ETS, New Mexico MPS 142446
2004 09 10.33748 01 30 38.69 +19 16 01.5 19.7   704 – Lincoln Laboratory ETS, New Mexico MPS 142446
2004 10 08.31741 01 13 49.15 +17 41 07.8 19.0 R 699 – Lowell Observatory-LONEOS MPS 142446
2004 10 08.32717 01 13 48.69 +17 41 05.5   699 – Lowell Observatory-LONEOS MPS 142446
2004 10 08.33693 01 13 48.29 +17 41 01.7   699 – Lowell Observatory-LONEOS MPS 142446
2004 10 08.34671 01 13 47.69 +17 40 59.2   699 – Lowell Observatory-LONEOS MPS 142446
2004 10 10.25358 01 12 21.86 +17 30 19.2 19.5   704 – Lincoln Laboratory ETS, New Mexico MPS 142446
2004 10 10.26459 01 12 21.46 +17 30 15.3 19.4   704 – Lincoln Laboratory ETS, New Mexico MPS 142446
2004 10 10.27560 01 12 20.95 +17 30 12.4 19.1   704 – Lincoln Laboratory ETS, New Mexico MPS 142446
2004 10 10.28663 01 12 20.36 +17 30 07.7 19.7   704 – Lincoln Laboratory ETS, New Mexico MPS 142447
2004 10 10.29770 01 12 19.87 +17 30 03.8 19.7   704 – Lincoln Laboratory ETS, New Mexico MPS 142447
2004 10 21.22333 01 04 10.24 +16 22 22.7 19.4   704 – Lincoln Laboratory ETS, New Mexico MPS 142447
2004 10 21.23518 01 04 09.70 +16 22 17.8 19.9   704 – Lincoln Laboratory ETS, New Mexico MPS 142447
2004 10 21.24704 01 04 09.21 +16 22 13.2 19.5   704 – Lincoln Laboratory ETS, New Mexico MPS 142447
2004 10 21.25891 01 04 08.68 +16 22 08.4 19.7   704 – Lincoln Laboratory ETS, New Mexico MPS 142447
2004 11 04.25196 00 55 07.37 +14 48 45.4 19.4 R 703 – Catalina Sky Survey MPS 142447
2004 11 04.26244 00 55 07.03 +14 48 41.7 19.8 R 703 – Catalina Sky Survey MPS 142447
2004 11 04.27292 00 55 06.63 +14 48 37.2 19.1 R 703 – Catalina Sky Survey MPS 142447
2004 11 04.28336 00 55 06.32 +14 48 34.4 19.0 R 703 – Catalina Sky Survey MPS 142447
2005 12 27.34055 07 52 15.13 +13 14 43.9   691 – Steward Observatory, Kitt Peak-Spacewatch MPS 156360
2005 12 27.35788 07 52 14.29 +13 14 42.4   691 – Steward Observatory, Kitt Peak-Spacewatch MPS 156360
2005 12 27.37521 07 52 13.49 +13 14 41.2   691 – Steward Observatory, Kitt Peak-Spacewatch MPS 156360
2006 01 04.32595 07 45 53.31 +13 08 11.7 19.8 V G96 – Mt. Lemmon Survey MPS 157545
2006 01 04.33310 07 45 52.92 +13 08 11.4 19.7 V G96 – Mt. Lemmon Survey MPS 157545
2006 01 04.34024 07 45 52.56 +13 08 11.1 19.8 V G96 – Mt. Lemmon Survey MPS 157545
2006 01 04.34740 07 45 52.16 +13 08 11.0 19.8 V G96 – Mt. Lemmon Survey MPS 157545
2006 01 05.28659 07 45 04.57 +13 07 45.4 19.7 V G96 – Mt. Lemmon Survey MPS 157545
2006 01 05.28747 07 45 04.53 +13 07 45.3 19.7 V G96 – Mt. Lemmon Survey MPS 157545
2006 01 05.29125 07 45 04.32 +13 07 45.4 19.7 V G96 – Mt. Lemmon Survey MPS 157545
2006 01 05.29214 07 45 04.32 +13 07 45.2 19.8 V G96 – Mt. Lemmon Survey MPS 157545
2006 01 05.29602 07 45 04.06 +13 07 45.1 19.7 V G96 – Mt. Lemmon Survey MPS 157545
2006 01 05.29698 07 45 04.03 +13 07 45.1 19.8 V G96 – Mt. Lemmon Survey MPS 157545
2006 01 05.30084 07 45 03.85 +13 07 45.0 19.7 V G96 – Mt. Lemmon Survey MPS 157545
2006 01 05.30173 07 45 03.78 +13 07 44.9 19.7 V G96 – Mt. Lemmon Survey MPS 157545
2007 03 20.34837 13 24 49.10 -18 41 46.5 19.8 V 703 – Catalina Sky Survey MPS 204460
2007 03 20.35536 13 24 48.63 -18 41 46.7 19.8 V 703 – Catalina Sky Survey MPS 204460
2007 03 20.36234 13 24 48.52 -18 41 44.3 18.9 V 703 – Catalina Sky Survey MPS 204460
2007 03 20.36932 13 24 48.20 -18 41 43.3 20.1 V 703 – Catalina Sky Survey MPS 204460
2009 08 22.93940 22 59 59.95 +06 02 21.7   621 – Bergisch Gladbach MPS 292557
2009 08 22.95035 22 59 59.49 +06 02 19.6   621 – Bergisch Gladbach MPS 292557
2009 08 22.95855 22 59 59.18 +06 02 18.6   621 – Bergisch Gladbach MPS 292557
2009 08 22.96676 22 59 58.83 +06 02 17.3 20.0 C 621 – Bergisch Gladbach MPS 292557
2009 08 23.93873 22 59 19.49 +05 59 26.0   621 – Bergisch Gladbach MPS 292557
2009 08 23.95109 22 59 18.91 +05 59 23.9   621 – Bergisch Gladbach MPS 292557
2009 08 23.96208 22 59 18.48 +05 59 21.9 20.0 C 621 – Bergisch Gladbach MPS 292557
2009 08 27.32660 22 56 58.52 +05 48 28.5 19.6 V 703 – Catalina Sky Survey MPS 294895
2009 08 27.33375 22 56 58.23 +05 48 28.3 20.3 V 703 – Catalina Sky Survey MPS 294895
2009 08 27.34098 22 56 57.87 +05 48 25.4 20.2 V 703 – Catalina Sky Survey MPS 294895
2009 08 27.34813 22 56 57.58 +05 48 24.6 19.7 V 703 – Catalina Sky Survey MPS 294895
2010 10 29.40497 04 55 48.76 +24 06 49.7 20.0 V 691 – Steward Observatory, Kitt Peak-Spacewatch MPS 355117
2010 10 29.42276 04 55 48.31 +24 06 47.0 20.1 V 691 – Steward Observatory, Kitt Peak-Spacewatch MPS 355117
2010 10 29.44053 04 55 47.86 +24 06 44.3 20.1 V 691 – Steward Observatory, Kitt Peak-Spacewatch MPS 355117
2010 11 06.35932 04 51 54.70 +23 44 14.3   691 – Steward Observatory, Kitt Peak-Spacewatch MPS 357264
2010 11 06.37755 04 51 54.02 +23 44 12.4   691 – Steward Observatory, Kitt Peak-Spacewatch MPS 357264
2010 11 06.39979 04 51 53.23 +23 44 06.8   691 – Steward Observatory, Kitt Peak-Spacewatch MPS 357264
2010 11 10.32473 04 49 26.19 +23 31 21.3 19.9 V 691 – Steward Observatory, Kitt Peak-Spacewatch MPS 357264
2010 11 10.34246 04 49 25.46 +23 31 17.7 19.9 V 691 – Steward Observatory, Kitt Peak-Spacewatch MPS 357264
2010 11 10.36019 04 49 24.65 +23 31 14.9 19.5 V 691 – Steward Observatory, Kitt Peak-Spacewatch MPS 357264
2010 11 10.41801 04 49 22.33 +23 31 02.1 19.3 V G96 – Mt. Lemmon Survey MPS 357264
2010 11 10.42436 04 49 22.08 +23 31 00.6 19.2 V G96 – Mt. Lemmon Survey MPS 357264
2010 11 10.43076 04 49 21.82 +23 30 59.5 19.3 V G96 – Mt. Lemmon Survey MPS 357264
2010 11 10.43719 04 49 21.54 +23 30 58.1 19.3 V G96 – Mt. Lemmon Survey MPS 357264
2010 11 14.32610 04 46 37.87 +23 17 17.4 19.9   704 – Lincoln Laboratory ETS, New Mexico MPS 358632
2010 11 14.33321 04 46 37.53 +23 17 16.1 19.7 V 691 – Steward Observatory, Kitt Peak-Spacewatch MPS 358632
2010 11 14.33567 04 46 37.37 +23 17 15.7 19.8 V 691 – Steward Observatory, Kitt Peak-Spacewatch MPS 358632
2010 11 14.35091 04 46 36.75 +23 17 11.7 19.6 V 691 – Steward Observatory, Kitt Peak-Spacewatch MPS 358632
2010 11 14.35174 04 46 36.70 +23 17 11.7 20.2   704 – Lincoln Laboratory ETS, New Mexico MPS 358632
2010 11 14.35339 04 46 36.61 +23 17 11.6 19.8 V 691 – Steward Observatory, Kitt Peak-Spacewatch MPS 358632
2010 11 14.36450 04 46 36.04 +23 17 07.9 20.7   704 – Lincoln Laboratory ETS, New Mexico MPS 358632
